Wind_Speed
16 16 11 8 4 6 12 13 16 18 20 20 18 20 20 18 17 17 16 14 12 12 10 8 6 4 3 1 2 4 5 6 5
26 26 13 8 7 5 12 16 17 19 21 22 20 20 20 19 19 17 17 17 15 14 13 11 9 8 7 6 6 6 6 7 7
21 23 23 10 12 5 11 17 19 20 20 21 22 22 22 21 19 20 19 17 15 14 12 12 11 13 11 10 10 9 9 10 11
33 24 16 16 9 9 10 18 19 20 20 21 20 20 22 22 19 18 17 15 13 13 13 13 15 16 15 13 13 13 11 11 13
43 28 23 19 13 13 14 14 20 20 19 20 21 23 23 22 21 19 17 14 11 11 13 15 16 17 16 16 15 13 14 13 13
48 35 30 24 20 19 18 15 20 20 19 20 23 24 23 22 21 20 17 12 8 8 8 8 8 6 9 12 13 12 11 11 12
36 40 33 31 24 25 20 16 16 22 22 21 22 22 22 22 21 20 16 11 11 11 8 7 8 8 9 9 7 6 6 6 6
32 37 34 31 28 28 23 19 14 21 24 23 23 23 21 20 21 18 14 13 12 12 9 10 10 9 8 6 6 4 4 3 2
18 24 33 35 34 28 27 22 18 14 22 24 25 23 21 21 20 16 15 14 15 12 10 11 10 8 5 4 4 3 3 2 4
24 26 25 30 31 31 29 26 23 21 17 23 25 23 22 20 17 15 17 16 14 12 10 11 9 8 8 6 4 3 3 3 6
31 29 29 30 29 28 33 32 31 27 27 24 27 25 22 19 15 15 18 17 14 14 13 13 11 9 8 7 6 7 10 12 10
37 33 31 30 28 24 18 23 22 21 22 29 27 27 21 18 18 18 19 17 17 17 15 12 11 13 12 10 12 13 13 14 17
37 35 33 32 29 24 17 22 23 26 23 23 29 27 21 23 27 25 22 21 21 19 18 14 15 13 14 15 15 16 18 20 20
39 39 34 31 28 26 25 24 26 27 26 21 20 29 35 33 31 29 29 27 25 25 23 21 20 18 17 18 18 23 25 25 26
40 40 36 32 29 27 25 26 28 31 31 33 35 38 37 35 32 32 32 31 33 30 28 27 26 27 25 24 25 26 27 30 30
46 42 42 37 38 38 37 30 27 27 29 31 36 39 38 38 33 32 34 37 39 39 36 34 33 32 32 32 32 34 34 34 33
47 44 43 43 38 38 33 31 30 28 24 24 29 37 40 41 42 42 41 39 41 43 43 40 40 38 38 39 39 37 37 36 37
54 49 48 43 43 41 38 36 33 31 28 28 28 30 34 40 44 45 46 48 47 47 45 43 39 39 40 39 38 39 40 41 40
58 54 50 41 39 37 36 37 36 33 33 33 32 31 31 37 41 42 43 42 41 39 37 37 37 36 35 34 35 35 36 38 41
62 59 55 53 44 42 45 47 43 40 35 34 33 32 34 34 34 36 39 42 42 41 39 39 38 38 38 37 38 38 39 40 42
Wind_Direction
243 245 224 174 172 279 186 200 202 193 191 186 198 201 199 202 200 206 199 196 200 207 215 224 227 216 230 275 341 349 351 332 326
226 233 206 201 129 274 198 197 206 202 197 194 200 208 199 192 197 205 198 199 205 214 217 224 242 244 247 259 259 272 292 305 318
232 220 225 201 151 192 234 193 205 206 201 201 198 202 194 188 194 196 198 199 205 216 230 236 239 252 247 244 248 249 260 276 288
252 241 217 192 161 173 249 191 198 207 205 208 204 195 198 194 197 199 202 208 219 232 242 245 245 244 246 244 245 250 261 273 281
240 238 226 191 198 227 231 193 187 198 204 201 199 193 195 201 201 203 206 210 227 249 252 246 247 249 247 247 248 247 253 262 272
218 230 227 217 192 226 227 216 177 189 195 194 200 197 196 198 200 202 202 204 227 238 241 226 225 219 224 232 237 245 254 261 266
201 220 223 230 200 213 211 216 188 184 193 198 202 204 200 199 200 200 199 210 208 220 217 191 198 202 201 211 213 220 236 248 255
193 213 225 233 233 212 219 220 218 190 191 199 202 205 206 208 204 199 202 201 205 205 191 185 186 195 191 184 167 189 209 215 142
205 215 224 224 230 223 220 213 210 213 193 201 204 205 206 202 200 193 189 187 192 199 207 197 188 181 175 159 153 162 191 188 141
223 228 225 222 220 221 221 223 205 213 209 205 202 197 201 195 187 187 186 191 197 208 206 197 189 191 191 197 195 214 243 208 168
227 232 236 235 232 215 221 222 221 215 217 221 210 199 203 191 186 188 193 189 191 206 213 217 216 212 202 209 222 239 244 249 236
226 234 235 232 234 227 216 209 207 204 211 216 219 211 198 188 190 194 196 195 196 208 214 221 224 220 224 221 219 231 235 241 244
228 225 227 228 227 216 196 200 202 197 211 216 212 212 202 201 201 199 197 202 207 211 217 224 225 232 242 247 251 262 253 256 256
219 223 228 230 230 228 223 209 206 208 206 216 216 209 208 206 204 210 207 209 216 222 230 237 239 243 252 261 274 271 272 271 264
220 223 228 230 230 229 225 217 213 214 213 209 208 215 218 215 218 214 222 217 222 225 230 237 242 248 250 257 264 276 276 274 271
211 218 218 219 220 224 230 228 227 225 220 214 210 216 221 223 225 221 223 226 225 227 230 233 237 247 253 258 260 266 270 273 273
215 207 210 216 220 222 220 226 234 237 233 220 213 213 212 214 219 225 225 227 230 232 235 237 240 242 247 252 258 262 266 269 273
224 213 203 209 216 223 224 230 233 238 238 235 228 224 223 225 227 229 230 233 236 241 242 245 248 248 251 254 258 262 266 269 271
226 224 209 209 207 215 227 234 234 235 236 238 238 231 224 222 229 235 241 244 246 251 253 254 255 254 252 255 259 261 263 265 268
228 231 230 216 216 229 237 237 237 238 238 242 244 240 239 235 230 232 235 242 245 248 250 250 250 252 256 258 259 260 262 265 269
Height
5878 5882 5888 5889 5888 5886 5888 5891 5896 5901 5905 5909 5915 5918 5921 5925 5929 5932 5934 5937 5939 5941 5943 5944 5944 5945 5947 5947 5948 5947 5947 5945 5946
5868 5876 5881 5886 5884 5884 5887 5890 5894 5899 5903 5906 5911 5915 5918 5922 5926 5930 5932 5934 5937 5939 5942 5942 5943 5944 5946 5947 5948 5948 5946 5944 5943
5862 5868 5873 5879 5880 5882 5886 5888 5893 5898 5901 5904 5907 5912 5917 5920 5923 5926 5930 5933 5935 5937 5938 5940 5942 5942 5943 5945 5946 5945 5945 5944 5943
5853 5860 5867 5872 5876 5881 5886 5887 5891 5894 5898 5902 5906 5910 5915 5918 5921 5925 5928 5931 5933 5934 5935 5936 5938 5939 5940 5941 5942 5942 5943 5943 5942
5848 5854 5861 5868 5872 5880 5884 5884 5888 5890 5895 5899 5904 5906 5911 5916 5919 5922 5926 5928 5931 5932 5932 5933 5933 5934 5935 5936 5938 5940 5940 5940 5940
5840 5846 5855 5864 5867 5875 5880 5882 5884 5887 5892 5896 5900 5904 5908 5913 5917 5920 5923 5926 5928 5929 5929 5930 5931 5931 5932 5933 5934 5936 5937 5937 5937
5835 5842 5850 5858 5862 5870 5876 5877 5879 5883 5888 5893 5897 5902 5906 5910 5913 5916 5920 5922 5924 5925 5927 5928 5929 5930 5930 5931 5932 5933 5934 5934 5934
5830 5837 5843 5850 5857 5865 5869 5872 5875 5879 5883 5889 5893 5898 5903 5907 5910 5913 5916 5918 5920 5922 5924 5926 5927 5927 5928 5929 5930 5931 5932 5932 5932
5829 5833 5838 5844 5851 5858 5864 5868 5873 5876 5880 5885 5889 5894 5898 5902 5906 5909 5912 5914 5917 5919 5921 5923 5924 5925 5926 5928 5929 5930 5930 5930 5931
5823 5828 5833 5838 5845 5852 5858 5863 5869 5873 5876 5880 5885 5889 5893 5898 5902 5905 5908 5911 5914 5916 5918 5920 5921 5922 5924 5925 5927 5928 5928 5928 5929
5818 5822 5827 5833 5840 5847 5852 5858 5862 5868 5871 5875 5881 5885 5890 5894 5899 5902 5905 5908 5911 5913 5916 5917 5918 5920 5921 5922 5923 5924 5925 5924 5926
5812 5816 5821 5828 5835 5842 5848 5854 5859 5864 5868 5872 5876 5881 5887 5893 5897 5899 5902 5906 5908 5910 5912 5914 5915 5916 5918 5919 5920 5920 5920 5920 5920
5806 5812 5817 5821 5828 5835 5843 5848 5853 5861 5865 5868 5873 5878 5884 5888 5891 5894 5898 5900 5903 5905 5907 5909 5910 5913 5914 5915 5916 5916 5915 5915 5914
5802 5806 5812 5819 5824 5830 5837 5842 5847 5853 5859 5866 5871 5873 5875 5879 5884 5888 5891 5893 5896 5899 5901 5903 5905 5907 5909 5909 5909 5909 5909 5909 5908
5798 5803 5808 5814 5818 5823 5828 5834 5839 5844 5849 5855 5860 5865 5870 5874 5877 5880 5881 5885 5889 5891 5894 5896 5899 5900 5902 5903 5902 5902 5902 5901 5901
5790 5797 5802 5808 5812 5816 5822 5827 5832 5836 5841 5846 5851 5855 5859 5865 5869 5872 5875 5877 5880 5882 5884 5887 5890 5892 5894 5894 5894 5894 5893 5893 5894
5781 5788 5795 5800 5806 5810 5815 5820 5826 5830 5834 5839 5843 5845 5847 5851 5855 5859 5862 5865 5868 5870 5873 5876 5879 5881 5883 5884 5885 5885 5885 5885 5885
5768 5779 5786 5793 5798 5803 5809 5814 5819 5823 5826 5831 5834 5837 5840 5843 5845 5848 5851 5853 5856 5859 5863 5866 5869 5871 5872 5873 5875 5876 5876 5876 5876
5757 5767 5778 5783 5789 5795 5800 5805 5810 5816 5819 5822 5826 5830 5833 5835 5837 5838 5840 5843 5847 5849 5852 5856 5858 5860 5862 5863 5864 5865 5866 5866 5865
5747 5755 5764 5775 5781 5787 5791 5796 5801 5805 5810 5814 5817 5820 5824 5827 5830 5832 5835 5836 5838 5841 5843 5845 5848 5849 5850 5852 5853 5853 5853 5853 5853